Location: *
(53.9002°N, 27.5624°E)
Time: 07:28:21
(UTC+00:00)

NOSS 3-2 (C) - Pass Details

Date: 12 November 2019
Orbit: 821 x 1392 km, 63.4° (Epoch: 25 November)

Event Time Altitude Azimuth Distance (km) Brightness Sun altitude
Rises 18:17:02 0° 306° (NW) 3,799 7.5 -35.1°
Reaches altitude 10° 18:19:35 10° 310° (NW) 2,923 6.7 -35.4°
Enters shadow 18:25:04 51° 347° (NNW) 1,442 4.4 -36.2°
